Time,TemperatureF,DewpointF,PressureIn,WindDirection,WindDirectionDegrees,WindSpeedMPH,WindSpeedGustMPH,Humidity,HourlyPrecipIn,Conditions,Clouds,dailyrainin,SoftwareType,DateUTC
2013-01-19 00:04:00,35.9,33.8,30.29,South,179,0.0,0.0,92,0.00,OVC,,0.00,WeatherDisplay:10.37,2013-01-19 08:04:00,
2013-01-19 00:09:00,35.9,33.8,30.29,South,179,0.0,0.0,92,0.00,OVC,,0.00,WeatherDisplay:10.37,2013-01-19 08:09:00,
2013-01-19 00:14:00,35.9,33.8,30.29,South,179,0.0,0.0,92,0.00,OVC,,0.00,WeatherDisplay:10.37,2013-01-19 08:14:00,
2013-01-19 00:19:00,35.8,33.7,30.29,South,179,0.0,0.0,92,0.00,OVC,,0.00,WeatherDisplay:10.37,2013-01-19 08:19:00,
2013-01-19 00:24:00,35.7,33.6,30.29,South,179,0.0,0.0,92,0.00,OVC,,0.00,WeatherDisplay:10.37,2013-01-19 08:24:00,
2013-01-19 00:29:00,35.7,33.6,30.29,South,179,0.0,0.0,92,0.00,OVC,,0.00,WeatherDisplay:10.37,2013-01-19 08:29:00,
2013-01-19 00:34:00,35.6,33.5,30.29,South,179,0.0,0.0,92,0.00,OVC,,0.00,WeatherDisplay:10.37,2013-01-19 08:34:00,
2013-01-19 00:39:00,35.5,33.4,30.29,South,179,0.0,0.0,92,0.00,OVC,,0.00,WeatherDisplay:10.37,2013-01-19 08:39:00,
2013-01-19 00:44:00,35.4,33.0,30.29,South,179,0.0,0.0,91,0.00,OVC,,0.00,WeatherDisplay:10.37,2013-01-19 08:44:00,
2013-01-19 00:49:00,35.4,33.0,30.29,South,179,0.0,0.0,91,0.00,OVC,,0.00,WeatherDisplay:10.37,2013-01-19 08:49:00,
2013-01-19 00:54:00,35.3,32.9,30.29,South,179,0.0,0.0,91,0.00,OVC,,0.00,WeatherDisplay:10.37,2013-01-19 08:54:00,
2013-01-19 00:59:00,35.3,32.9,30.29,South,179,0.0,0.0,91,0.00,OVC,,0.00,WeatherDisplay:10.37,2013-01-19 08:59:00,
2013-01-19 01:04:00,35.2,32.8,30.28,South,179,0.0,0.0,91,0.00,OVC,,0.00,WeatherDisplay:10.37,2013-01-19 09:04:00,
2013-01-19 01:09:00,35.1,32.7,30.28,South,179,0.0,0.0,91,0.00,OVC,,0.00,WeatherDisplay:10.37,2013-01-19 09:09:00,
2013-01-19 01:14:00,35.1,32.5,30.28,South,179,0.0,0.0,90,0.00,OVC,,0.00,WeatherDisplay:10.37,2013-01-19 09:14:00,
2013-01-19 01:19:00,34.8,32.2,30.28,South,179,0.0,0.0,90,0.00,OVC,,0.00,WeatherDisplay:10.37,2013-01-19 09:19:00,
2013-01-19 01:24:00,34.7,32.1,30.28,South,179,0.0,0.0,90,0.00,OVC,,0.00,WeatherDisplay:10.37,2013-01-19 09:24:00,
2013-01-19 01:29:00,34.4,31.8,30.29,South,179,0.0,0.0,90,0.00,OVC,,0.00,WeatherDisplay:10.37,2013-01-19 09:29:00,
2013-01-19 01:34:00,34.4,31.8,30.29,South,179,0.0,0.0,90,0.00,OVC,,0.00,WeatherDisplay:10.37,2013-01-19 09:34:00,
2013-01-19 01:39:00,34.3,31.7,30.29,South,179,0.0,0.0,90,0.00,OVC,,0.00,WeatherDisplay:10.37,2013-01-19 09:39:00,
2013-01-19 01:44:00,34.0,31.4,30.29,South,179,0.0,0.0,90,0.00,OVC,,0.00,WeatherDisplay:10.37,2013-01-19 09:44:00,
2013-01-19 01:49:00,33.9,31.6,30.29,South,179,0.0,0.0,91,0.00,OVC,,0.00,WeatherDisplay:10.37,2013-01-19 09:49:00,
2013-01-19 01:54:00,33.7,31.4,30.29,South,179,0.0,0.0,91,0.00,OVC,,0.00,WeatherDisplay:10.37,2013-01-19 09:54:00,
2013-01-19 01:59:00,33.6,31.3,30.30,South,179,0.0,0.0,91,0.00,OVC,,0.00,WeatherDisplay:10.37,2013-01-19 09:59:00,
2013-01-19 02:04:00,33.6,31.3,30.30,South,179,0.0,0.0,91,0.00,OVC,,0.00,WeatherDisplay:10.37,2013-01-19 10:04:00,
2013-01-19 02:09:00,33.5,31.2,30.30,South,179,0.0,0.0,91,0.00,OVC,,0.00,WeatherDisplay:10.37,2013-01-19 10:09:00,
2013-01-19 02:14:00,33.5,31.2,30.30,South,179,0.0,0.0,91,0.00,OVC,,0.00,WeatherDisplay:10.37,2013-01-19 10:14:00,
2013-01-19 02:19:00,33.4,31.3,30.30,South,179,0.0,0.0,92,0.00,OVC,,0.00,WeatherDisplay:10.37,2013-01-19 10:19:00,
2013-01-19 02:24:00,33.4,31.3,30.30,South,179,0.0,0.0,92,0.00,OVC,,0.00,WeatherDisplay:10.37,2013-01-19 10:24:00,
2013-01-19 02:29:00,33.3,31.2,30.30,South,179,0.0,0.0,92,0.00,OVC,,0.00,WeatherDisplay:10.37,2013-01-19 10:29:00,
2013-01-19 02:34:00,33.3,31.2,30.30,South,179,0.0,0.0,92,0.00,OVC,,0.00,WeatherDisplay:10.37,2013-01-19 10:34:00,
2013-01-19 02:39:00,33.3,31.2,30.30,South,179,0.0,0.0,92,0.00,OVC,,0.00,WeatherDisplay:10.37,2013-01-19 10:39:00,
2013-01-19 02:44:00,33.3,31.2,30.30,South,179,0.0,0.0,92,0.00,OVC,,0.00,WeatherDisplay:10.37,2013-01-19 10:44:00,
2013-01-19 02:49:00,33.4,31.6,30.30,South,179,0.0,0.0,93,0.00,OVC,,0.00,WeatherDisplay:10.37,2013-01-19 10:49:00,
2013-01-19 02:54:00,33.4,31.6,30.30,South,179,0.0,0.0,93,0.00,OVC,,0.00,WeatherDisplay:10.37,2013-01-19 10:54:00,
2013-01-19 02:59:00,33.4,31.6,30.30,South,179,0.0,0.0,93,0.00,OVC,,0.00,WeatherDisplay:10.37,2013-01-19 10:59:00,
2013-01-19 03:04:00,33.4,31.6,30.30,South,179,0.0,0.0,93,0.00,OVC,,0.00,WeatherDisplay:10.37,2013-01-19 11:04:00,
2013-01-19 03:09:00,33.5,31.7,30.29,South,179,0.0,0.0,93,0.00,OVC,,0.00,WeatherDisplay:10.37,2013-01-19 11:09:00,
2013-01-19 03:14:00,33.5,31.7,30.29,South,179,0.0,0.0,93,0.00,OVC,,0.00,WeatherDisplay:10.37,2013-01-19 11:14:00,
2013-01-19 04:47:00,32.8,31.3,30.30,South,179,0.0,0.0,94,0.00,OVC,,0.00,WeatherDisplay:10.37,2013-01-19 12:47:00,
2013-01-19 04:48:00,32.8,31.3,30.29,South,179,0.0,0.0,94,0.00,OVC,,0.00,WeatherDisplay:10.37,2013-01-19 12:48:00,
2013-01-19 04:53:00,32.8,31.3,30.29,South,179,0.0,0.0,94,0.00,OVC,,0.00,WeatherDisplay:10.37,2013-01-19 12:53:00,
2013-01-19 04:58:00,32.8,31.3,30.30,South,179,0.0,0.0,94,0.00,OVC,,0.00,WeatherDisplay:10.37,2013-01-19 12:58:00,
2013-01-19 05:03:00,32.8,31.3,30.29,South,179,0.0,0.0,94,0.00,OVC,,0.00,WeatherDisplay:10.37,2013-01-19 13:03:00,
2013-01-19 05:08:00,32.8,31.3,30.29,South,179,0.0,0.0,94,0.00,OVC,,0.00,WeatherDisplay:10.37,2013-01-19 13:08:00,
2013-01-19 05:13:00,32.7,31.2,30.29,South,179,0.0,0.0,94,0.00,OVC,,0.00,WeatherDisplay:10.37,2013-01-19 13:13:00,
2013-01-19 05:18:00,32.6,31.1,30.29,South,179,0.0,0.0,94,0.00,OVC,,0.00,WeatherDisplay:10.37,2013-01-19 13:18:00,
2013-01-19 05:23:00,32.5,31.0,30.29,South,179,0.0,0.0,94,0.00,OVC,,0.00,WeatherDisplay:10.37,2013-01-19 13:23:00,
2013-01-19 05:28:00,32.4,30.9,30.30,South,179,0.0,0.0,94,0.00,OVC,,0.00,WeatherDisplay:10.37,2013-01-19 13:28:00,
2013-01-19 05:33:00,32.3,30.8,30.30,South,179,0.0,0.0,94,0.00,OVC,,0.00,WeatherDisplay:10.37,2013-01-19 13:33:00,
2013-01-19 05:38:00,32.1,30.6,30.30,South,179,0.0,0.0,94,0.00,OVC,,0.00,WeatherDisplay:10.37,2013-01-19 13:38:00,
2013-01-19 05:43:00,32.0,30.5,30.30,South,179,0.0,0.0,94,0.00,OVC,,0.00,WeatherDisplay:10.37,2013-01-19 13:43:00,
2013-01-19 05:48:00,31.9,30.4,30.30,South,179,0.0,0.0,94,0.00,OVC,,0.00,WeatherDisplay:10.37,2013-01-19 13:48:00,
2013-01-19 05:53:00,31.9,30.4,30.30,South,179,0.0,0.0,94,0.00,OVC,,0.00,WeatherDisplay:10.37,2013-01-19 13:53:00,
2013-01-19 05:58:00,32.1,30.6,30.30,South,179,0.0,0.0,94,0.00,OVC,,0.00,WeatherDisplay:10.37,2013-01-19 13:58:00,
2013-01-19 06:03:00,32.3,30.8,30.30,South,179,0.0,0.0,94,0.00,OVC,,0.00,WeatherDisplay:10.37,2013-01-19 14:03:00,
2013-01-19 06:08:00,32.4,30.9,30.30,South,179,0.0,0.0,94,0.00,OVC,,0.00,WeatherDisplay:10.37,2013-01-19 14:08:00,
2013-01-19 06:13:00,32.7,31.2,30.30,South,179,0.0,0.0,94,0.00,OVC,,0.00,WeatherDisplay:10.37,2013-01-19 14:13:00,
2013-01-19 06:18:00,32.9,31.1,30.30,South,179,0.0,0.0,93,0.00,OVC,,0.00,WeatherDisplay:10.37,2013-01-19 14:18:00,
2013-01-19 06:23:00,33.0,31.2,30.30,South,179,0.0,0.0,93,0.00,OVC,,0.00,WeatherDisplay:10.37,2013-01-19 14:23:00,
2013-01-19 06:28:00,33.0,31.2,30.31,South,179,0.0,0.0,93,0.00,OVC,,0.00,WeatherDisplay:10.37,2013-01-19 14:28:00,
2013-01-19 06:33:00,33.0,30.9,30.31,South,179,0.0,0.0,92,0.00,OVC,,0.00,WeatherDisplay:10.37,2013-01-19 14:33:00,
2013-01-19 06:38:00,33.0,30.9,30.31,South,179,0.0,0.0,92,0.00,OVC,,0.00,WeatherDisplay:10.37,2013-01-19 14:38:00,
2013-01-19 06:44:00,32.8,30.7,30.31,South,179,0.0,0.0,92,0.00,OVC,,0.00,WeatherDisplay:10.37,2013-01-19 14:44:00,
2013-01-19 06:49:00,32.6,30.3,30.31,South,179,0.0,0.0,91,0.00,OVC,,0.00,WeatherDisplay:10.37,2013-01-19 14:49:00,
2013-01-19 06:54:00,32.3,30.0,30.31,South,179,0.0,0.0,91,0.00,OVC,,0.00,WeatherDisplay:10.37,2013-01-19 14:54:00,
2013-01-19 06:59:00,31.8,29.5,30.31,South,179,0.0,0.0,91,0.00,OVC,,0.00,WeatherDisplay:10.37,2013-01-19 14:59:00,
2013-01-19 07:04:00,31.4,29.1,30.31,South,179,0.0,0.0,91,0.00,OVC,,0.00,WeatherDisplay:10.37,2013-01-19 15:04:00,
2013-01-19 07:09:00,31.0,28.7,30.31,South,179,0.0,0.0,91,0.00,OVC,,0.00,WeatherDisplay:10.37,2013-01-19 15:09:00,
2013-01-19 07:14:00,30.7,28.4,30.32,South,179,0.0,0.0,91,0.00,OVC,,0.00,WeatherDisplay:10.37,2013-01-19 15:14:00,
2013-01-19 07:19:00,30.4,28.1,30.32,South,179,0.0,0.0,91,0.00,OVC,,0.00,WeatherDisplay:10.37,2013-01-19 15:19:00,
2013-01-19 07:24:00,30.1,27.8,30.32,South,179,0.0,0.0,91,0.00,OVC,,0.00,WeatherDisplay:10.37,2013-01-19 15:24:00,
2013-01-19 07:29:00,29.9,27.9,30.32,South,179,0.0,0.0,92,0.00,OVC,,0.00,WeatherDisplay:10.37,2013-01-19 15:29:00,
2013-01-19 07:34:00,29.7,27.4,30.32,South,179,0.0,0.0,91,0.00,OVC,,0.00,WeatherDisplay:10.37,2013-01-19 15:34:00,
2013-01-19 07:39:00,29.2,26.9,30.32,South,179,1.1,0.0,91,0.00,OVC,,0.00,WeatherDisplay:10.37,2013-01-19 15:39:00,
2013-01-19 07:44:00,28.6,26.3,30.32,South,179,0.0,0.0,91,0.00,OVC,,0.00,WeatherDisplay:10.37,2013-01-19 15:44:00,
2013-01-19 07:49:00,28.1,25.8,30.32,South,179,0.0,0.0,91,0.00,OVC,,0.00,WeatherDisplay:10.37,2013-01-19 15:49:00,
2013-01-19 07:54:00,27.8,25.8,30.32,South,179,0.0,0.0,92,0.00,OVC,,0.00,WeatherDisplay:10.37,2013-01-19 15:54:00,
2013-01-19 07:59:00,27.6,25.6,30.32,South,179,0.0,0.0,92,0.00,OVC,,0.00,WeatherDisplay:10.37,2013-01-19 15:59:00,
2013-01-19 08:04:00,27.6,25.6,30.32,South,179,0.0,0.0,92,0.00,OVC,,0.00,WeatherDisplay:10.37,2013-01-19 16:04:00,
2013-01-19 08:09:00,27.6,25.6,30.32,South,179,0.0,0.0,92,0.00,OVC,,0.00,WeatherDisplay:10.37,2013-01-19 16:09:00,
2013-01-19 08:14:00,27.7,25.7,30.32,South,179,0.0,0.0,92,0.00,OVC,,0.00,WeatherDisplay:10.37,2013-01-19 16:14:00,
2013-01-19 08:19:00,27.8,26.0,30.32,South,179,0.0,0.0,93,0.00,OVC,,0.00,WeatherDisplay:10.37,2013-01-19 16:19:00,
2013-01-19 08:24:00,27.6,25.6,30.32,South,179,0.0,0.0,92,0.00,OVC,,0.00,WeatherDisplay:10.37,2013-01-19 16:24:00,
2013-01-19 08:29:00,27.4,25.4,30.32,South,179,0.0,0.0,92,0.00,OVC,,0.00,WeatherDisplay:10.37,2013-01-19 16:29:00,
2013-01-19 08:34:00,27.2,25.4,30.33,South,179,0.0,0.0,93,0.00,OVC,,0.00,WeatherDisplay:10.37,2013-01-19 16:34:00,
2013-01-19 08:39:00,27.2,25.4,30.33,South,179,0.0,0.0,93,0.00,OVC,,0.00,WeatherDisplay:10.37,2013-01-19 16:39:00,
2013-01-19 08:44:00,27.2,25.4,30.33,South,179,0.0,0.0,93,0.00,OVC,,0.00,WeatherDisplay:10.37,2013-01-19 16:44:00,
2013-01-19 08:49:00,27.3,25.5,30.33,South,179,0.0,0.0,93,0.00,OVC,,0.00,WeatherDisplay:10.37,2013-01-19 16:49:00,
2013-01-19 08:54:00,27.4,25.6,30.33,South,179,0.0,0.0,93,0.00,OVC,,0.00,WeatherDisplay:10.37,2013-01-19 16:54:00,
2013-01-19 08:59:00,27.5,25.7,30.33,South,179,0.0,0.0,93,0.00,OVC,,0.00,WeatherDisplay:10.37,2013-01-19 16:59:00,
2013-01-19 09:04:00,27.6,25.8,30.33,South,179,0.0,0.0,93,0.00,OVC,,0.00,WeatherDisplay:10.37,2013-01-19 17:04:00,
2013-01-19 09:09:00,27.7,25.9,30.33,South,179,0.0,0.0,93,0.00,OVC,,0.00,WeatherDisplay:10.37,2013-01-19 17:09:00,
2013-01-19 09:14:00,27.9,26.1,30.33,South,179,0.0,0.0,93,0.00,OVC,,0.00,WeatherDisplay:10.37,2013-01-19 17:14:00,
2013-01-19 09:21:00,28.4,26.9,30.33,South,179,0.0,0.0,94,0.00,OVC,,0.00,WeatherDisplay:10.37,2013-01-19 17:21:00,
2013-01-19 09:26:00,28.8,27.3,30.33,South,179,0.0,0.0,94,0.00,OVC,,0.00,WeatherDisplay:10.37,2013-01-19 17:26:00,
2013-01-19 09:32:00,29.5,28.0,30.33,South,179,0.0,0.0,94,0.01,RA,,0.01,WeatherDisplay:10.37,2013-01-19 17:32:00,
2013-01-19 09:37:00,30.1,28.6,30.33,South,179,0.0,0.0,94,0.01,RA,,0.01,WeatherDisplay:10.37,2013-01-19 17:37:00,
2013-01-19 09:42:00,30.8,29.3,30.33,South,179,0.0,0.0,94,0.01,OVC,,0.01,WeatherDisplay:10.37,2013-01-19 17:42:00,
2013-01-19 09:48:00,31.4,29.9,30.33,South,179,0.0,0.0,94,0.01,OVC,,0.01,WeatherDisplay:10.37,2013-01-19 17:48:00,
2013-01-19 09:55:00,32.3,30.8,30.33,South,179,0.0,0.0,94,0.01,OVC,,0.01,WeatherDisplay:10.37,2013-01-19 17:55:00,
2013-01-19 10:00:00,32.6,31.1,30.33,South,179,0.0,0.0,94,0.01,OVC,,0.01,WeatherDisplay:10.37,2013-01-19 18:00:00,
2013-01-19 10:05:00,33.0,31.5,30.33,South,179,0.0,0.0,94,0.01,OVC,,0.01,WeatherDisplay:10.37,2013-01-19 18:05:00,
2013-01-19 10:11:00,33.3,31.8,30.33,South,179,0.0,0.0,94,0.01,OVC,,0.01,WeatherDisplay:10.37,2013-01-19 18:11:00,
2013-01-19 10:16:00,33.6,32.1,30.34,South,179,0.0,0.0,94,0.01,OVC,,0.01,WeatherDisplay:10.37,2013-01-19 18:16:00,
2013-01-19 10:22:00,34.1,32.6,30.33,South,179,0.0,0.0,94,0.01,OVC,,0.01,WeatherDisplay:10.37,2013-01-19 18:22:00,
2013-01-19 10:27:00,34.4,32.9,30.34,South,179,0.0,0.0,94,0.01,OVC,,0.01,WeatherDisplay:10.37,2013-01-19 18:27:00,
2013-01-19 10:32:00,35.1,33.5,30.33,South,179,2.0,2.0,94,0.01,OVC,,0.01,WeatherDisplay:10.37,2013-01-19 18:32:00,
2013-01-19 10:37:00,35.4,33.8,30.33,South,179,0.0,0.0,94,0.00,OVC,,0.01,WeatherDisplay:10.37,2013-01-19 18:37:00,
2013-01-19 10:43:00,36.0,34.2,30.33,South,179,0.0,0.0,93,0.00,OVC,,0.01,WeatherDisplay:10.37,2013-01-19 18:43:00,
2013-01-19 10:48:00,36.3,34.2,30.33,South,179,2.3,2.3,92,0.00,OVC,,0.01,WeatherDisplay:10.37,2013-01-19 18:48:00,
2013-01-19 10:53:00,36.6,34.2,30.33,South,179,2.3,2.3,91,0.00,OVC,,0.01,WeatherDisplay:10.37,2013-01-19 18:53:00,
2013-01-19 10:58:00,36.8,34.1,30.33,South,179,3.5,3.5,90,0.00,OVC,,0.01,WeatherDisplay:10.37,2013-01-19 18:58:00,
2013-01-19 11:04:00,36.8,33.9,30.33,South,179,2.3,2.3,89,0.00,OVC,,0.01,WeatherDisplay:10.37,2013-01-19 19:04:00,
2013-01-19 11:09:00,36.9,34.0,30.33,South,179,2.3,2.3,89,0.00,OVC,,0.01,WeatherDisplay:10.37,2013-01-19 19:09:00,
2013-01-19 11:15:00,37.0,34.3,30.33,South,179,1.1,0.0,90,0.00,OVC,,0.01,WeatherDisplay:10.37,2013-01-19 19:15:00,
2013-01-19 11:20:00,37.3,34.4,30.32,South,180,2.3,2.3,89,0.00,OVC,,0.01,WeatherDisplay:10.37,2013-01-19 19:20:00,
2013-01-19 11:25:00,37.6,34.4,30.32,South,180,2.3,2.3,88,0.00,OVC,,0.01,WeatherDisplay:10.37,2013-01-19 19:25:00,
2013-01-19 11:30:00,37.8,34.8,30.32,South,180,2.3,2.3,89,0.00,OVC,,0.01,WeatherDisplay:10.37,2013-01-19 19:30:00,
2013-01-19 11:36:00,37.9,34.9,30.32,South,180,2.3,0.0,89,0.00,OVC,,0.01,WeatherDisplay:10.37,2013-01-19 19:36:00,
2013-01-19 11:42:00,38.2,35.0,30.31,South,180,2.3,2.3,88,0.00,OVC,,0.01,WeatherDisplay:10.37,2013-01-19 19:42:00,
2013-01-19 11:47:00,38.2,34.7,30.31,South,180,3.5,3.5,87,0.00,OVC,,0.01,WeatherDisplay:10.37,2013-01-19 19:47:00,
2013-01-19 11:52:00,38.2,35.0,30.31,South,180,0.0,0.0,88,0.00,OVC,,0.01,WeatherDisplay:10.37,2013-01-19 19:52:00,
2013-01-19 11:57:00,38.7,35.7,30.31,South,180,0.0,0.0,89,0.00,OVC,,0.01,WeatherDisplay:10.37,2013-01-19 19:57:00,
2013-01-19 12:03:00,39.5,36.0,30.31,South,180,1.1,1.1,87,0.00,OVC,,0.01,WeatherDisplay:10.37,2013-01-19 20:03:00,
2013-01-19 12:09:00,39.7,35.9,30.31,South,180,1.1,1.1,86,0.00,OVC,,0.01,WeatherDisplay:10.37,2013-01-19 20:09:00,
2013-01-19 12:14:00,40.0,36.2,30.30,South,184,0.0,0.0,86,0.00,OVC,,0.01,WeatherDisplay:10.37,2013-01-19 20:14:00,
2013-01-19 12:20:00,40.5,36.6,30.30,South,184,0.0,0.0,86,0.00,OVC,,0.01,WeatherDisplay:10.37,2013-01-19 20:20:00,
2013-01-19 12:25:00,41.1,37.2,30.30,South,184,0.0,0.0,86,0.00,OVC,,0.01,WeatherDisplay:10.37,2013-01-19 20:25:00,
2013-01-19 12:30:00,41.7,37.2,30.30,South,184,0.0,0.0,84,0.00,OVC,,0.01,WeatherDisplay:10.37,2013-01-19 20:30:00,
2013-01-19 12:35:00,42.2,37.7,30.30,South,184,1.0,0.0,84,0.00,OVC,,0.01,WeatherDisplay:10.37,2013-01-19 20:35:00,
2013-01-19 12:40:00,42.5,36.4,30.29,SW,235,2.3,2.3,79,0.00,OVC,,0.01,WeatherDisplay:10.37,2013-01-19 20:40:00,
2013-01-19 12:45:00,42.8,37.1,30.29,SW,235,0.0,0.0,80,0.00,OVC,,0.01,WeatherDisplay:10.37,2013-01-19 20:45:00,
2013-01-19 12:50:00,43.3,38.2,30.29,SW,235,0.0,0.0,82,0.00,OVC,,0.01,WeatherDisplay:10.37,2013-01-19 20:50:00,
2013-01-19 12:55:00,43.7,38.3,30.29,SW,235,0.0,0.0,81,0.00,OVC,,0.01,WeatherDisplay:10.37,2013-01-19 20:55:00,
2013-01-19 13:00:00,44.0,38.9,30.28,SW,235,0.0,0.0,82,0.00,OVC,,0.01,WeatherDisplay:10.37,2013-01-19 21:00:00,
2013-01-19 13:05:00,44.6,39.4,30.28,SW,235,0.0,0.0,82,0.00,OVC,,0.01,WeatherDisplay:10.37,2013-01-19 21:05:00,
2013-01-19 13:10:00,45.0,39.2,30.28,SW,235,0.0,0.0,80,0.00,OVC,,0.01,WeatherDisplay:10.37,2013-01-19 21:10:00,
2013-01-19 13:15:00,45.0,38.6,30.28,SW,235,0.0,0.0,78,0.00,OVC,,0.01,WeatherDisplay:10.37,2013-01-19 21:15:00,
2013-01-19 13:20:00,45.0,38.9,30.28,SW,235,1.1,1.1,79,0.00,OVC,,0.01,WeatherDisplay:10.37,2013-01-19 21:20:00,
2013-01-19 13:25:00,44.7,38.9,30.28,SW,235,0.0,0.0,80,0.00,OVC,,0.01,WeatherDisplay:10.37,2013-01-19 21:25:00,
2013-01-19 13:31:00,44.8,39.3,30.28,SW,235,0.0,0.0,81,0.00,OVC,,0.01,WeatherDisplay:10.37,2013-01-19 21:31:00,
2013-01-19 13:37:00,44.9,38.8,30.28,SW,234,1.1,0.0,79,0.00,OVC,,0.01,WeatherDisplay:10.37,2013-01-19 21:37:00,
2013-01-19 13:43:00,44.8,38.7,30.27,SW,234,0.0,0.0,79,0.00,OVC,,0.01,WeatherDisplay:10.37,2013-01-19 21:43:00,
2013-01-19 13:48:00,44.6,38.8,30.27,SW,234,0.0,0.0,80,0.00,OVC,,0.01,WeatherDisplay:10.37,2013-01-19 21:48:00,
2013-01-19 13:53:00,44.7,38.9,30.27,SW,234,0.0,0.0,80,0.00,OVC,,0.01,WeatherDisplay:10.37,2013-01-19 21:53:00,
2013-01-19 13:58:00,44.9,39.4,30.27,SW,234,0.0,0.0,81,0.00,OVC,,0.01,WeatherDisplay:10.37,2013-01-19 21:58:00,
2013-01-19 14:04:00,45.2,39.4,30.27,SW,234,0.0,0.0,80,0.00,OVC,,0.01,WeatherDisplay:10.37,2013-01-19 22:04:00,
2013-01-19 14:09:00,45.6,39.1,30.26,SW,234,0.0,0.0,78,0.00,OVC,,0.01,WeatherDisplay:10.37,2013-01-19 22:09:00,
2013-01-19 14:14:00,45.8,39.0,30.27,SW,234,0.0,0.0,77,0.00,OVC,,0.01,WeatherDisplay:10.37,2013-01-19 22:14:00,
2013-01-19 14:19:00,45.8,39.0,30.27,SW,234,0.0,0.0,77,0.00,OVC,,0.01,WeatherDisplay:10.37,2013-01-19 22:19:00,
2013-01-19 14:24:00,45.9,39.1,30.27,SW,234,0.0,0.0,77,0.00,OVC,,0.01,WeatherDisplay:10.37,2013-01-19 22:24:00,
2013-01-19 14:29:00,45.9,38.8,30.27,SW,234,0.0,0.0,76,0.00,OVC,,0.01,WeatherDisplay:10.37,2013-01-19 22:29:00,
2013-01-19 14:35:00,45.8,38.7,30.27,SW,234,1.1,1.1,76,0.00,OVC,,0.01,WeatherDisplay:10.37,2013-01-19 22:35:00,
2013-01-19 14:40:00,45.7,38.6,30.27,SW,234,0.0,0.0,76,0.00,OVC,,0.01,WeatherDisplay:10.37,2013-01-19 22:40:00,
2013-01-19 14:45:00,45.5,38.7,30.27,SW,234,0.0,0.0,77,0.00,OVC,,0.01,WeatherDisplay:10.37,2013-01-19 22:45:00,
2013-01-19 14:50:00,45.2,38.4,30.27,SW,234,0.0,0.0,77,0.00,OVC,,0.01,WeatherDisplay:10.37,2013-01-19 22:50:00,
2013-01-19 14:55:00,44.7,37.9,30.27,SW,234,0.0,0.0,77,0.00,OVC,,0.01,WeatherDisplay:10.37,2013-01-19 22:55:00,
2013-01-19 15:00:00,44.4,38.0,30.27,SW,234,0.0,0.0,78,0.00,OVC,,0.01,WeatherDisplay:10.37,2013-01-19 23:00:00,
2013-01-19 15:05:00,44.1,38.3,30.27,SW,234,0.0,0.0,80,0.00,OVC,,0.01,WeatherDisplay:10.37,2013-01-19 23:05:00,
2013-01-19 15:10:00,43.8,38.3,30.27,SW,234,0.0,0.0,81,0.00,OVC,,0.01,WeatherDisplay:10.37,2013-01-19 23:10:00,
2013-01-19 15:15:00,43.5,38.1,30.27,SW,234,0.0,0.0,81,0.00,OVC,,0.01,WeatherDisplay:10.37,2013-01-19 23:15:00,
2013-01-19 15:21:00,42.8,37.7,30.27,SW,234,0.0,0.0,82,0.00,OVC,,0.01,WeatherDisplay:10.37,2013-01-19 23:21:00,
2013-01-19 15:27:00,42.4,37.3,30.27,SW,234,0.0,0.0,82,0.00,OVC,,0.01,WeatherDisplay:10.37,2013-01-19 23:27:00,
2013-01-19 15:32:00,41.8,37.0,30.27,SW,234,0.0,0.0,83,0.00,OVC,,0.01,WeatherDisplay:10.37,2013-01-19 23:32:00,
2013-01-19 15:37:00,41.2,36.7,30.27,SW,234,0.0,0.0,84,0.00,OVC,,0.01,WeatherDisplay:10.37,2013-01-19 23:37:00,
2013-01-19 15:42:00,40.7,36.2,30.27,SW,234,0.0,0.0,84,0.00,OVC,,0.01,WeatherDisplay:10.37,2013-01-19 23:42:00,
2013-01-19 15:48:00,40.3,36.1,30.27,SW,234,0.0,0.0,85,0.00,OVC,,0.01,WeatherDisplay:10.37,2013-01-19 23:48:00,
2013-01-19 15:53:00,39.9,35.8,30.28,SW,234,0.0,0.0,85,0.00,OVC,,0.01,WeatherDisplay:10.37,2013-01-19 23:53:00,
2013-01-19 15:59:00,39.4,35.6,30.28,SW,234,0.0,0.0,86,0.00,OVC,,0.01,WeatherDisplay:10.37,2013-01-19 23:59:00,
2013-01-19 16:05:00,39.1,35.3,30.28,SW,234,0.0,0.0,86,0.00,OVC,,0.01,WeatherDisplay:10.37,2013-01-20 00:05:00,
2013-01-19 16:10:00,38.8,35.3,30.28,SW,234,0.0,0.0,87,0.00,OVC,,0.01,WeatherDisplay:10.37,2013-01-20 00:10:00,
2013-01-19 16:15:00,38.7,35.2,30.27,SW,234,0.0,0.0,87,0.00,OVC,,0.01,WeatherDisplay:10.37,2013-01-20 00:15:00,
2013-01-19 16:20:00,38.5,35.0,30.27,SW,234,0.0,0.0,87,0.00,OVC,,0.01,WeatherDisplay:10.37,2013-01-20 00:20:00,
2013-01-19 16:25:00,38.3,34.8,30.28,WSW,249,2.3,2.3,87,0.00,OVC,,0.01,WeatherDisplay:10.37,2013-01-20 00:25:00,
2013-01-19 16:31:00,38.0,34.5,30.28,WSW,249,0.0,0.0,87,0.00,OVC,,0.01,WeatherDisplay:10.37,2013-01-20 00:31:00,
2013-01-19 16:36:00,37.9,34.4,30.28,WSW,249,0.0,0.0,87,0.00,OVC,,0.01,WeatherDisplay:10.37,2013-01-20 00:36:00,
2013-01-19 16:41:00,37.9,34.4,30.27,WSW,249,0.0,0.0,87,0.00,OVC,,0.01,WeatherDisplay:10.37,2013-01-20 00:41:00,
2013-01-19 16:46:00,37.7,34.2,30.28,WSW,249,1.1,1.1,87,0.00,OVC,,0.01,WeatherDisplay:10.37,2013-01-20 00:46:00,
2013-01-19 16:51:00,37.4,33.9,30.28,WSW,249,0.0,0.0,87,0.00,OVC,,0.01,WeatherDisplay:10.37,2013-01-20 00:51:00,
2013-01-19 16:56:00,37.3,33.8,30.28,WSW,249,0.0,0.0,87,0.00,OVC,,0.01,WeatherDisplay:10.37,2013-01-20 00:56:00,
2013-01-19 17:01:00,37.1,33.6,30.28,WSW,249,0.0,0.0,87,0.00,OVC,,0.01,WeatherDisplay:10.37,2013-01-20 01:01:00,
2013-01-19 17:07:00,36.8,33.3,30.28,WSW,249,0.0,0.0,87,0.00,OVC,,0.01,WeatherDisplay:10.37,2013-01-20 01:07:00,
2013-01-19 17:12:00,36.6,33.1,30.28,WSW,249,0.0,0.0,87,0.00,OVC,,0.01,WeatherDisplay:10.37,2013-01-20 01:12:00,
2013-01-19 17:18:00,36.2,32.7,30.28,WSW,249,0.0,0.0,87,0.00,OVC,,0.01,WeatherDisplay:10.37,2013-01-20 01:18:00,
2013-01-19 17:23:00,35.9,32.4,30.28,WSW,249,0.0,0.0,87,0.00,OVC,,0.01,WeatherDisplay:10.37,2013-01-20 01:23:00,
2013-01-19 17:28:00,35.7,32.5,30.28,WSW,249,0.0,0.0,88,0.00,OVC,,0.01,WeatherDisplay:10.37,2013-01-20 01:28:00,
2013-01-19 17:33:00,35.5,32.3,30.28,WSW,249,0.0,0.0,88,0.00,OVC,,0.01,WeatherDisplay:10.37,2013-01-20 01:33:00,
2013-01-19 17:38:00,35.3,32.1,30.29,WSW,249,0.0,0.0,88,0.00,OVC,,0.01,WeatherDisplay:10.37,2013-01-20 01:38:00,
2013-01-19 17:44:00,35.1,31.9,30.29,WSW,249,0.0,0.0,88,0.00,OVC,,0.01,WeatherDisplay:10.37,2013-01-20 01:44:00,
2013-01-19 17:49:00,35.0,31.8,30.29,WSW,249,0.0,0.0,88,0.00,OVC,,0.01,WeatherDisplay:10.37,2013-01-20 01:49:00,
2013-01-19 17:54:00,34.6,31.4,30.29,WSW,249,0.0,0.0,88,0.00,OVC,,0.01,WeatherDisplay:10.37,2013-01-20 01:54:00,
2013-01-19 18:00:00,34.4,31.5,30.29,WSW,249,0.0,0.0,89,0.00,OVC,,0.01,WeatherDisplay:10.37,2013-01-20 02:00:00,
2013-01-19 18:05:00,34.4,31.5,30.29,WSW,249,0.0,0.0,89,0.00,OVC,,0.01,WeatherDisplay:10.37,2013-01-20 02:05:00,
2013-01-19 18:10:00,34.3,31.4,30.29,WSW,249,0.0,0.0,89,0.00,OVC,,0.01,WeatherDisplay:10.37,2013-01-20 02:10:00,
2013-01-19 18:15:00,34.2,31.6,30.29,WSW,249,0.0,0.0,90,0.00,OVC,,0.01,WeatherDisplay:10.37,2013-01-20 02:15:00,
2013-01-19 18:20:00,34.1,31.5,30.29,WSW,249,0.0,0.0,90,0.00,OVC,,0.01,WeatherDisplay:10.37,2013-01-20 02:20:00,
2013-01-19 18:25:00,34.1,31.7,30.30,WSW,249,0.0,0.0,91,0.00,OVC,,0.01,WeatherDisplay:10.37,2013-01-20 02:25:00,
2013-01-19 18:30:00,34.0,31.6,30.30,WSW,249,0.0,0.0,91,0.00,OVC,,0.01,WeatherDisplay:10.37,2013-01-20 02:30:00,
2013-01-19 18:35:00,34.0,31.6,30.30,WSW,249,0.0,0.0,91,0.00,OVC,,0.01,WeatherDisplay:10.37,2013-01-20 02:35:00,
2013-01-19 18:42:00,33.9,31.6,30.30,WSW,249,0.0,0.0,91,0.00,OVC,,0.01,WeatherDisplay:10.37,2013-01-20 02:42:00,
2013-01-19 18:47:00,33.7,31.4,30.30,WSW,249,0.0,0.0,91,0.00,OVC,,0.01,WeatherDisplay:10.37,2013-01-20 02:47:00,
2013-01-19 18:52:00,33.6,31.3,30.30,WSW,249,0.0,0.0,91,0.00,OVC,,0.01,WeatherDisplay:10.37,2013-01-20 02:52:00,
2013-01-19 18:57:00,33.2,30.9,30.31,WSW,249,2.3,2.3,91,0.00,OVC,,0.01,WeatherDisplay:10.37,2013-01-20 02:57:00,
2013-01-19 19:02:00,32.5,29.9,30.31,West,270,2.3,2.3,90,0.00,OVC,,0.01,WeatherDisplay:10.37,2013-01-20 03:02:00,
2013-01-19 19:07:00,32.1,29.8,30.31,West,270,2.3,2.3,91,0.00,OVC,,0.01,WeatherDisplay:10.37,2013-01-20 03:07:00,
2013-01-19 19:13:00,31.7,29.4,30.32,West,270,0.0,0.0,91,0.00,OVC,,0.01,WeatherDisplay:10.37,2013-01-20 03:13:00,
2013-01-19 19:18:00,31.6,29.3,30.31,West,270,0.0,0.0,91,0.00,OVC,,0.01,WeatherDisplay:10.37,2013-01-20 03:18:00,
2013-01-19 19:23:00,31.4,29.1,30.32,West,270,0.0,0.0,91,0.00,OVC,,0.01,WeatherDisplay:10.37,2013-01-20 03:23:00,
2013-01-19 19:29:00,31.2,28.9,30.32,West,270,0.0,0.0,91,0.00,OVC,,0.01,WeatherDisplay:10.37,2013-01-20 03:29:00,
2013-01-19 19:34:00,31.0,28.7,30.32,West,270,0.0,0.0,91,0.00,OVC,,0.01,WeatherDisplay:10.37,2013-01-20 03:34:00,
2013-01-19 19:39:00,31.0,28.7,30.32,West,270,0.0,0.0,91,0.00,OVC,,0.01,WeatherDisplay:10.37,2013-01-20 03:39:00,
2013-01-19 19:44:00,31.1,29.0,30.32,West,270,0.0,0.0,92,0.00,OVC,,0.01,WeatherDisplay:10.37,2013-01-20 03:44:00,
2013-01-19 19:49:00,31.1,29.0,30.33,West,270,0.0,0.0,92,0.00,OVC,,0.01,WeatherDisplay:10.37,2013-01-20 03:49:00,
2013-01-19 19:55:00,31.1,29.0,30.33,West,270,0.0,0.0,92,0.00,OVC,,0.01,WeatherDisplay:10.37,2013-01-20 03:55:00,
2013-01-19 20:00:00,31.1,29.0,30.33,West,270,0.0,0.0,92,0.00,OVC,,0.01,WeatherDisplay:10.37,2013-01-20 04:00:00,
2013-01-19 20:05:00,31.2,29.1,30.33,West,270,0.0,0.0,92,0.00,OVC,,0.01,WeatherDisplay:10.37,2013-01-20 04:05:00,
2013-01-19 20:10:00,31.4,29.6,30.33,West,270,0.0,0.0,93,0.00,OVC,,0.01,WeatherDisplay:10.37,2013-01-20 04:10:00,
2013-01-19 20:15:00,31.5,29.7,30.33,West,270,0.0,0.0,93,0.00,OVC,,0.01,WeatherDisplay:10.37,2013-01-20 04:15:00,
2013-01-19 20:20:00,31.7,29.9,30.33,West,270,0.0,0.0,93,0.00,OVC,,0.01,WeatherDisplay:10.37,2013-01-20 04:20:00,
2013-01-19 20:25:00,31.9,30.1,30.33,West,270,0.0,0.0,93,0.00,OVC,,0.01,WeatherDisplay:10.37,2013-01-20 04:25:00,
2013-01-19 20:30:00,31.9,30.1,30.33,West,270,0.0,0.0,93,0.00,OVC,,0.01,WeatherDisplay:10.37,2013-01-20 04:30:00,
2013-01-19 20:35:00,32.0,30.2,30.33,West,270,0.0,0.0,93,0.00,OVC,,0.01,WeatherDisplay:10.37,2013-01-20 04:35:00,
2013-01-19 20:40:00,32.1,30.3,30.33,West,270,0.0,0.0,93,0.00,OVC,,0.01,WeatherDisplay:10.37,2013-01-20 04:40:00,
2013-01-19 20:45:00,32.1,30.3,30.33,West,270,0.0,0.0,93,0.00,OVC,,0.01,WeatherDisplay:10.37,2013-01-20 04:45:00,
2013-01-19 20:50:00,32.3,30.5,30.33,West,270,1.1,1.1,93,0.00,OVC,,0.01,WeatherDisplay:10.37,2013-01-20 04:50:00,
2013-01-19 20:55:00,32.5,30.7,30.33,West,270,0.0,0.0,93,0.00,OVC,,0.01,WeatherDisplay:10.37,2013-01-20 04:55:00,
2013-01-19 21:00:00,32.6,30.8,30.33,West,270,0.0,0.0,93,0.00,OVC,,0.01,WeatherDisplay:10.37,2013-01-20 05:00:00,
2013-01-19 21:03:00,32.8,31.0,30.33,West,270,0.0,0.0,93,0.00,OVC,,0.01,WeatherDisplay:10.37,2013-01-20 05:03:00,
2013-01-19 21:04:00,32.8,31.0,30.33,West,270,0.0,0.0,93,0.00,OVC,,0.01,WeatherDisplay:10.37,2013-01-20 05:04:00,
2013-01-19 21:09:00,32.8,31.0,30.33,West,270,0.0,0.0,93,0.00,OVC,,0.01,WeatherDisplay:10.37,2013-01-20 05:09:00,
2013-01-19 21:14:00,32.8,31.0,30.33,West,270,0.0,0.0,93,0.00,OVC,,0.01,WeatherDisplay:10.37,2013-01-20 05:14:00,
2013-01-19 21:19:00,32.8,30.7,30.33,West,270,0.0,0.0,92,0.00,OVC,,0.01,WeatherDisplay:10.37,2013-01-20 05:19:00,
2013-01-19 21:24:00,32.5,30.4,30.33,West,270,0.0,0.0,92,0.00,OVC,,0.01,WeatherDisplay:10.37,2013-01-20 05:24:00,
2013-01-19 21:29:00,32.4,30.3,30.33,West,270,0.0,0.0,92,0.00,OVC,,0.01,WeatherDisplay:10.37,2013-01-20 05:29:00,
2013-01-19 21:34:00,32.4,30.3,30.33,West,270,0.0,0.0,92,0.00,OVC,,0.01,WeatherDisplay:10.37,2013-01-20 05:34:00,
2013-01-19 21:39:00,32.5,30.4,30.33,West,270,0.0,0.0,92,0.00,OVC,,0.01,WeatherDisplay:10.37,2013-01-20 05:39:00,
2013-01-19 21:44:00,32.6,30.5,30.33,West,270,0.0,0.0,92,0.00,OVC,,0.01,WeatherDisplay:10.37,2013-01-20 05:44:00,
2013-01-19 21:49:00,32.7,30.6,30.33,West,270,0.0,0.0,92,0.00,OVC,,0.01,WeatherDisplay:10.37,2013-01-20 05:49:00,
2013-01-19 21:54:00,32.8,30.7,30.34,West,270,0.0,0.0,92,0.00,OVC,,0.01,WeatherDisplay:10.37,2013-01-20 05:54:00,
2013-01-19 21:59:00,32.5,30.4,30.34,West,270,0.0,0.0,92,0.00,OVC,,0.01,WeatherDisplay:10.37,2013-01-20 05:59:00,
2013-01-19 22:04:00,32.2,30.1,30.33,West,270,0.0,0.0,92,0.00,OVC,,0.01,WeatherDisplay:10.37,2013-01-20 06:04:00,
2013-01-19 22:09:00,32.0,29.9,30.33,West,270,0.0,0.0,92,0.00,OVC,,0.01,WeatherDisplay:10.37,2013-01-20 06:09:00,
2013-01-19 22:14:00,31.9,29.8,30.33,West,270,0.0,0.0,92,0.00,OVC,,0.01,WeatherDisplay:10.37,2013-01-20 06:14:00,
2013-01-19 22:19:00,31.7,29.6,30.33,West,270,0.0,0.0,92,0.00,OVC,,0.01,WeatherDisplay:10.37,2013-01-20 06:19:00,
2013-01-19 22:24:00,31.7,29.6,30.33,West,270,0.0,0.0,92,0.00,OVC,,0.01,WeatherDisplay:10.37,2013-01-20 06:24:00,
2013-01-19 22:29:00,31.6,29.5,30.34,West,270,0.0,0.0,92,0.00,OVC,,0.01,WeatherDisplay:10.37,2013-01-20 06:29:00,
2013-01-19 22:34:00,31.6,29.5,30.33,West,270,0.0,0.0,92,0.00,OVC,,0.01,WeatherDisplay:10.37,2013-01-20 06:34:00,
2013-01-19 22:39:00,31.5,29.4,30.34,West,270,0.0,0.0,92,0.00,OVC,,0.01,WeatherDisplay:10.37,2013-01-20 06:39:00,
2013-01-19 22:44:00,31.4,29.3,30.34,West,270,0.0,0.0,92,0.00,OVC,,0.01,WeatherDisplay:10.37,2013-01-20 06:44:00,
2013-01-19 22:49:00,31.3,29.2,30.34,West,270,0.0,0.0,92,0.00,OVC,,0.01,WeatherDisplay:10.37,2013-01-20 06:49:00,
2013-01-19 22:54:00,31.1,29.0,30.34,West,270,0.0,0.0,92,0.00,OVC,,0.01,WeatherDisplay:10.37,2013-01-20 06:54:00,
2013-01-19 22:59:00,30.9,28.9,30.34,West,270,0.0,0.0,92,0.00,OVC,,0.01,WeatherDisplay:10.37,2013-01-20 06:59:00,
2013-01-19 23:04:00,30.8,28.8,30.34,West,270,0.0,0.0,92,0.00,OVC,,0.01,WeatherDisplay:10.37,2013-01-20 07:04:00,
2013-01-19 23:09:00,30.7,28.7,30.34,West,270,0.0,0.0,92,0.00,OVC,,0.01,WeatherDisplay:10.37,2013-01-20 07:09:00,
2013-01-19 23:14:00,30.6,28.6,30.34,West,270,0.0,0.0,92,0.00,OVC,,0.01,WeatherDisplay:10.37,2013-01-20 07:14:00,
2013-01-19 23:19:00,30.4,28.4,30.34,West,270,0.0,0.0,92,0.00,OVC,,0.01,WeatherDisplay:10.37,2013-01-20 07:19:00,
2013-01-19 23:24:00,30.3,28.3,30.34,West,270,0.0,0.0,92,0.00,OVC,,0.01,WeatherDisplay:10.37,2013-01-20 07:24:00,
2013-01-19 23:29:00,30.2,28.2,30.34,West,270,0.0,0.0,92,0.00,OVC,,0.01,WeatherDisplay:10.37,2013-01-20 07:29:00,
2013-01-19 23:34:00,30.1,28.3,30.34,West,270,0.0,0.0,93,0.00,OVC,,0.01,WeatherDisplay:10.37,2013-01-20 07:34:00,
2013-01-19 23:39:00,30.0,28.0,30.34,West,270,0.0,0.0,92,0.00,OVC,,0.01,WeatherDisplay:10.37,2013-01-20 07:39:00,
2013-01-19 23:44:00,29.8,27.8,30.34,West,270,0.0,0.0,92,0.00,OVC,,0.01,WeatherDisplay:10.37,2013-01-20 07:44:00,
2013-01-19 23:49:00,29.8,28.0,30.34,West,270,0.0,0.0,93,0.00,OVC,,0.01,WeatherDisplay:10.37,2013-01-20 07:49:00,
2013-01-19 23:54:00,29.7,27.9,30.34,West,270,0.0,0.0,93,0.00,OVC,,0.01,WeatherDisplay:10.37,2013-01-20 07:54:00,
2013-01-19 23:59:00,29.6,27.8,30.34,West,270,0.0,0.0,93,0.00,OVC,,0.01,WeatherDisplay:10.37,2013-01-20 07:59:00,